SL-12 DEB, 43541

Orbit data source: Space-Track

SL-12 DEB, 43541 is space debris in HEO originally from a launch on Fri, 26 Oct 2007 UTC launched from the Tyuratam Missile And Space Complex (TTMTR). Debris objects in space refer to the collection of defunct objects orbiting the Earth. Examples of debris include non-operational satellites, rocket bodies, and fragments generated from explosions, collisions, or faulty payload assembly.

Loading next visibility...
Identifier
43541, 2007-052AH
Orbit
HEO
Country
Flag of CISCIS
Related business
Manufacturer
RKKE
Mission
Spacecraft
Bus & Motor
Unknown
Mass
Unknown
Launch date (UTC)
2007-10-26 (19 years ago)
Launch vehicle
Unknown
Launch site
Tyuratam Missile And Space Complex (TTMTR)
Object type
Payload
Rocket body
Debris
Shape & HBR
Unknown shape, 0.7 m
Radar Cross Section
Medium (>0.1 m² and <1 m²)

Expand to show TLE details & history
Last TLE update: 8 hours ago

TLE from 8 hours ago
0 SL-12 DEB
1 43541U 07052AH  26126.52489204  .00000884  00000-0  23007-2 0  9996
2 43541  65.0042 290.8631 5711436 212.4228  94.1415  4.26150974121874
Epoch: 2026-05-06T12:35Z
TLE epoch observation values (Epoch: 2026-05-06T12:35:50.672Z)
Latitude
0.00003°
Longitude
-122.49316°
Altitude
14,541.567 km
Speed
3.648 km/s
True Right ascension
19h 23m 24s
True Declination
0° 00' 00"
Sunlit
Object was in daylight at epoch
Visualization orbit readout
Latitude
Unknown
Longitude
Unknown
Altitude
Unknown
Speed
Unknown
Apparent Right ascension
Unknown
Apparent Declination
Unknown
Sunlit
N/A
Visualization observer readout
Local Sidereal Time
04:08:29
Azimuth
Unknown
Elevation
Unknown
Doppler factor
Unknown
Orbital elements
Apogee altitude
18,868.948 km
Perigee altitude
513.26 km
Semi-major axis
16,069.241 km
Eccentricity
0.57114
Inclination
65.0042°
RAAN
290.8631°
Arg. of periapsis
212.4228°
True anomaly
147.64614°
Mean anomaly
94.1415°
Eccentric anomaly
121.91794°
Mean motion
1.06549 °/min
Orbital period
337.87 mins
BSTAR
0.0023007
Loading maneuver chart data...
Computing Atmospheric mass density...
Loading historical data...
Loading historical data...
Loading historical data...
Loading historical data...
Loading historical data...
Loading historical data...
Loading historical data...

Documentation

Showing up to 5 results
|